Regional Weather Roundup
Issued by NWS

Home | Current Version | Previous Version | Text Only | Print | Product List | Glossary Off
Versions: 1 2 3 4 5 6 7 8 9 10 11 12 13 14 15 16 17 18 19 20 21 22 23 24 25 26 27 28 29 30 31 32 33 34 35 36 37 38 39 40 41 42 43 44 45 46 47 48 49 50

000
ASUS45 KBOU 191507
RWRCO

WEATHER ROUNDUP FOR COLORADO
NATIONAL WEATHER SERVICE DENVER/BOULDER CO
900 AM MDT SUN OCT 19 2014

NOTE: "FAIR" INDICATES FEW OR NO CLOUDS BELOW 12000 FEET WITH NO
SIGNIFICANT WEATHER AND/OR OBSTRUCTIONS TO VISIBILITY.

COZ001>005-013-030-031-191600-
...NORTHWEST COLORADO...

CITY           SKY/WX    TMP DP  RH WIND       PRES   REMARKS
CRAIG          SUNNY     37  31  78 CALM      30.23R
HAYDEN         SUNNY     43  28  56 SE10      30.24R
MEEKER         MOSUNNY   43  34  70 CALM      30.23R
MOUNT WERNER   NOT AVBL
STEAMBOAT SPGS SUNNY     36  30  79 CALM      30.26R
WALDEN         SUNNY     36  28  75 CALM      30.30R
$$

COZ006>008-011-191600-
...WEST CENTRAL VALLEYS...

CITY           SKY/WX    TMP DP  RH WIND       PRES   REMARKS
GRAND JUNCTION PTSUNNY   53  39  59 CALM      30.14R
MONTROSE       MOSUNNY   53  39  59 SE8       30.20R
EAGLE          PTSUNNY   43  36  75 CALM      30.29R
RIFLE          CLOUDY    53  38  56 CALM      30.19R
DELTA          MOSUNNY   55  40  57 CALM      30.17S
NUCLA          MOSUNNY   50  37  62 CALM      30.22R
$$

COZ017>023-064>068-191600-
...SOUTHWEST COLORADO...

CITY           SKY/WX    TMP DP  RH WIND       PRES   REMARKS
DURANGO        PTSUNNY   45  39  79 E6        30.24R
CORTEZ         SUNNY     50  39  66 E5        30.19R
PAGOSA SPRINGS MOSUNNY   48  37  64 CALM      30.29R
TELLURIDE      MOSUNNY   46  36  66 CALM      30.33S
WOLF CREEK PAS SUNNY     36  32  87 MISG      30.46R
$$

COZ009-010-012-014-032>034-037-058>063-191600-
...CENTRAL COLORADO...

CITY           SKY/WX    TMP DP  RH WIND       PRES   REMARKS
ASPEN          CLOUDY    46  35  65 CALM      30.28R
BUENA VISTA    CLOUDY    47  33  57 CALM      30.30R
COPPER MTN     CLOUDY    41  27  56 W7        30.47R
BERTHOUD PASS  FAIR      32  30  93 MISG      30.50R
COTTONWOOD PAS CLOUDY    50  30  46 CALM      30.37S
GUNNISON       PTSUNNY   43  30  61 CALM      30.32R
KREMMLING      MOSUNNY   32  28  86 CALM        N/A
LEADVILLE      CLOUDY    42  29  59 CALM      30.36R
SALIDA         CLOUDY    51  35  54 NW5       30.35R
SUNLIGHT       CLOUDY    43  32  65 CALM      30.43R
WILKERSON PASS NOT AVBL
$$

COZ069>075-191600-
...SAN LUIS VALLEY/SANGRE DE CRISTO MOUNTAINS...

CITY           SKY/WX    TMP DP  RH WIND       PRES   REMARKS
ALAMOSA        MOSUNNY   45  40  82 SW6       30.29R
LA VETA PASS   MOSUNNY   39  34  81 S5        30.37R
SAGUACHE       MOSUNNY   43  36  75 CALM      30.32R
$$

COZ035-036-038>040-191600-
...NORTHERN COLORADO FRONT RANGE...

CITY           SKY/WX    TMP DP  RH WIND       PRES   REMARKS
DENVER INTL AP MOSUNNY   57  35  43 SW8       30.13R
DMNS CITY PARK   N/A     53  37  54 S6        30.13S
AURORA         PTSUNNY   53  36  53 S6        30.16R
FRONT RANGE AP MOSUNNY   57  37  47 SW7       30.14R
ERIE MUNI ARPT MOSUNNY   43  39  87 CALM      30.12R
BOULDER MUN AP MOSUNNY   54  37  54 CALM      30.13R
CENTENNIAL     PTSUNNY   54  40  59 SW6       30.16R
BROOMFIELD     MOSUNNY   55  32  41 CALM      30.15R
FORT COLLINS   SUNNY     54  37  54 N3        30.13R
LONGMONT       SUNNY     55  44  66 CALM      30.13S
$$

COZ041-046-047-076>085-087-088-191600-
...PIKES PEAK/PALMER DIVIDE AND SOUTHERN FOOTHILLS...

CITY           SKY/WX    TMP DP  RH WIND       PRES   REMARKS
COLO. SPRINGS  PTSUNNY   60  32  34 N9        30.17R
A. F. ACADEMY  MOSUNNY   55  33  43 N5        30.20R
ELLICOTT       NOT AVBL
FALCON         PTSUNNY   57  29  34 NW7       30.22R
FORT CARSON    CLOUDY    56  37  47 N9        30.14R
LIMON          MOSUNNY   56  40  55 W10       30.12R
MONUMENT HILL  PTSUNNY   52  32  46 W6        30.21R
TRINIDAD       SUNNY     55  40  56 W17       30.14R
$$

COZ042>045-048>051-090-091-191600-
...NORTHEAST COLORADO...

CITY           SKY/WX    TMP DP  RH WIND       PRES   REMARKS
GREELEY ARPT   SUNNY     48  37  66 SW5       30.12R
AKRON          SUNNY     51  41  68 W13       30.09R
BURLINGTON     SUNNY     53  42  66 NW9       30.06R
WRAY           SUNNY     51  44  77 W5        30.05S
STERLING       SUNNY     45  41  87 S3        30.08R
HOLYOKE        SUNNY     54  45  71 NW8       30.05R
FORT MORGAN    SUNNY     51  39  62 W9        30.11R
$$

COZ086-089-092>099-191600-
...SOUTHEAST COLORADO...

CITY           SKY/WX    TMP DP  RH WIND       PRES   REMARKS
PUEBLO         CLOUDY    52  42  69 W5        30.11R
LA JUNTA       MOSUNNY   52  45  77 W9        30.08R
LAMAR          SUNNY     50  44  80 W7        30.05R
SPRINGFIELD      N/A     59  48  67 W8        30.07R
$$


USA.gov is the U.S. government's official web portal to all federal, state and local government web resources and services.